Regional Weather Roundup
Issued by NWS

Home | Current Version | Previous Version | Text Only | Print | Product List | Glossary Off
Versions: 1 2 3 4 5 6 7 8 9 10 11 12 13 14 15 16 17 18 19 20 21 22 23 24 25 26 27 28 29 30 31 32 33 34 35 36 37 38 39 40 41 42 43 44 45 46 47 48 49 50

000
ASUS45 KBOU 120607
RWRCO

WEATHER ROUNDUP FOR COLORADO
NATIONAL WEATHER SERVICE DENVER/BOULDER CO
1100 PM MST THU FEB 11 2016

NOTE: "FAIR" INDICATES FEW OR NO CLOUDS BELOW 12000 FEET WITH NO
SIGNIFICANT WEATHER AND/OR OBSTRUCTIONS TO VISIBILITY.

COZ001>005-013-030-031-120700-
...NORTHWEST COLORADO...

CITY           SKY/WX    TMP DP  RH WIND       PRES   REMARKS
CRAIG          CLOUDY    19  15  84 CALM      30.41S
HAYDEN         CLOUDY    25  16  68 E5        30.39S WCI  19
MEEKER         CLOUDY    19  12  74 NE6       30.41R WCI  11
MOUNT WERNER   NOT AVBL
STEAMBOAT SPGS CLOUDY    21  16  81 CALM      30.40S
WALDEN         CLOUDY    30  14  51 SE3       30.40R
$$

COZ006>008-011-120700-
...WEST CENTRAL VALLEYS...

CITY           SKY/WX    TMP DP  RH WIND       PRES   REMARKS
GRAND JUNCTION CLOUDY    29  25  85 E5        30.41S WCI  24
MONTROSE       CLOUDY    27  20  75 S9        30.44S WCI  18
EAGLE          CLEAR     21  16  79 CALM      30.45R
RIFLE          CLOUDY    24  16  71 SW5       30.43R WCI  18
DELTA          CLOUDY    31  26  81 CALM      30.43S
NUCLA          CLOUDY    30  23  74 E5        30.45R WCI  25
$$

COZ017>023-064>068-120700-
...SOUTHWEST COLORADO...

CITY           SKY/WX    TMP DP  RH WIND       PRES   REMARKS
DURANGO        CLOUDY    23  18  81 N6        30.39S WCI  16
CORTEZ         CLOUDY    25  21  85 E9        30.39S WCI  15
PAGOSA SPRINGS CLOUDY    27  18  69 CALM      30.42R
TELLURIDE      CLOUDY    32  12  44 SE5       30.48S WCI  27
WOLF CREEK PAS CLOUDY    30   1  29 NE5       30.57R WCI  25
$$

COZ009-010-012-014-032>034-037-058>063-120700-
...CENTRAL COLORADO...

CITY           SKY/WX    TMP DP  RH WIND       PRES   REMARKS
ASPEN          CLOUDY    24  14  65 SW7       30.43R WCI  16
BUENA VISTA    CLOUDY    31  20  63 CALM      30.41R
COPPER MTN     CLOUDY    28  10  47 W15       30.50R WCI  17
BERTHOUD PASS  FAIR      21  10  63 NW43G49   30.41F WCI   0
COTTONWOOD PAS CLOUDY    37  12  35 W10       30.45R
GUNNISON       CLOUDY     1 -15  46 CALM      30.52S
KREMMLING      CLOUDY     5   1  85 CALM      30.46S
LEADVILLE      CLOUDY    28  11  48 NE3       30.44S
MONARCH PASS   CLOUDY    27  14  59 W17       30.61S WCI  14
SALIDA         NOT AVBL
SUNLIGHT       CLOUDY    32  12  43 CALM        N/A
WILKERSON PASS CLOUDY    32  16  51 W7        30.49F WCI  26
$$

COZ069>075-120700-
...SAN LUIS VALLEY/SANGRE DE CRISTO MOUNTAINS...

CITY           SKY/WX    TMP DP  RH WIND       PRES   REMARKS
ALAMOSA        CLOUDY    26  21  81 W5        30.40R WCI  20
LA VETA PASS   CLOUDY    32  10  40 MISG      30.44S
SAGUACHE       CLOUDY    32  16  51 NW15      30.42S WCI  22
$$

COZ035-036-038>040-120700-
...NORTHERN COLORADO FRONT RANGE...

CITY           SKY/WX    TMP DP  RH WIND       PRES   REMARKS
DENVER INTL AP PTCLDY    35  26  69 SE16      30.26S WCI  25
DMNS CITY PARK   N/A     44  23  43 SE8G16    30.26S
AURORA         PTCLDY    38  25  59 S15       30.28S
FRONT RANGE AP NOT AVBL
ERIE MUNI ARPT CLEAR     43  26  51 S5G16     30.24F
BOULDER MUN AP CLEAR     41  27  56 N6        30.24S
CENTENNIAL     CLOUDY    40  24  53 S12       30.28S
BROOMFIELD     CLEAR     43  27  52 CALM      30.26S
FORT COLLINS   CLEAR     39  27  60 CALM      30.26R
LONGMONT       CLEAR     32  27  81 CALM      30.27S
$$

COZ041-046-047-076>085-087-088-120700-
...PIKES PEAK/PALMER DIVIDE AND SOUTHERN FOOTHILLS...

CITY           SKY/WX    TMP DP  RH WIND       PRES   REMARKS
COLO. SPRINGS  CLOUDY    38  23  55 NE3       30.33R
A. F. ACADEMY  CLOUDY    31  22  69 NE6       30.31R WCI  25
SCHRIEVER AFB  FAIR      39  22  52 N9        30.33R
ELLICOTT       CLOUDY   N/A N/A N/A NE5       30.31R
FALCON         CLOUDY    34  22  61 CALM      30.34R
FORT CARSON    CLOUDY    38  24  57 S8        30.31R
LIMON          CLOUDY    26  22  84 CALM      30.29S
MONUMENT HILL  CLOUDY    28  19  69 S13       30.33S WCI  18
TRINIDAD       CLOUDY    35  21  56 NW7       30.35R WCI  29
$$

COZ042>045-048>051-090-091-120700-
...NORTHEAST COLORADO...

CITY           SKY/WX    TMP DP  RH WIND       PRES   REMARKS
GREELEY ARPT   CLEAR     34  27  75 S9        30.27R WCI  26
AKRON          CLOUDY    32  26  78 SW8       30.26R WCI  25
BURLINGTON     CLOUDY    35  26  69 NW12      30.25S WCI  27
WRAY           NOT AVBL
STERLING       CLOUDY    32  28  86 SW3       30.24S
HOLYOKE        CLOUDY    41  30  65 NW14      30.23S
FORT MORGAN    CLOUDY    35  26  67 W3        30.28R
$$

COZ086-089-092>099-120700-
...SOUTHEAST COLORADO...

CITY           SKY/WX    TMP DP  RH WIND       PRES   REMARKS
PUEBLO         CLOUDY    37  25  61 NW3       30.32R
LA JUNTA       CLOUDY    38  28  67 W12       30.30R
LAMAR          CLOUDY    31  24  75 SW8       30.26R WCI  23
SPRINGFIELD      N/A     32  22  66 NW10      30.27R WCI  24
$$



USA.gov is the U.S. government's official web portal to all federal, state and local government web resources and services.